Location: B?lite?ti
(46.2833°N, 22.7333°E)
Time: 17:01:42
(UTC+00:00)

CZ-2D R/B - Pass Details

Date: 24 January 2021
Orbit: 520 x 538 km, 97.4° (Epoch: 01 March)

Event Time Altitude Azimuth Distance (km) Brightness Sun altitude
Rises 16:07:16 0° 147° (SSE) 2,670 6.7 -8.0°
Reaches altitude 10° 16:09:28 10° 140° (SE) 1,782 5.7 -8.4°
Maximum altitude 16:13:03 39° 71° (ENE) 813 3.7 -8.9°
Drops below altitude 10° 16:16:39 10° 2° (N) 1,786 5.7 -9.5°
Sets 16:18:51 0° 355° (N) 2,678 6.7 -9.9°
